,,PA_Meas_PMT16A,,PR_Meas_QMR101_102,,RH_Meas_QMH101,,SR_Meas_QMS101,,TA_Meas_QMH101,,GenWind,,GenWind,
time,status,PA,status,PR,status,RH,status,SR,status,TA,status,DirAvg,status,SpdAvg,
2011-05-03, 00:00:04,VALID,917.951,VALID,0,VALID,96.9165,VALID,0,VALID,20.4813,VALID,94,VALID,0.740625,
2011-05-03, 00:01:04,VALID,917.874,VALID,0,VALID,96.9165,VALID,0.107441,VALID,20.4618,VALID,94,VALID,0.933203,
2011-05-03, 00:02:04,VALID,917.883,VALID,0,VALID,96.9241,VALID,0,VALID,20.4618,VALID,94,VALID,0.748438,
2011-05-03, 00:03:04,VALID,917.853,VALID,0,VALID,96.9241,VALID,0,VALID,20.4423,VALID,93,VALID,0.639453,
2011-05-03, 00:04:04,VALID,917.85,VALID,0,VALID,96.9012,VALID,0,VALID,20.4423,VALID,94,VALID,0.192969,
2011-05-03, 00:05:04,VALID,917.877,VALID,0,VALID,96.9317,VALID,0,VALID,20.4618,VALID,94,VALID,0.2625,
2011-05-03, 00:06:04,VALID,917.863,VALID,0,VALID,96.9241,VALID,0,VALID,20.4423,VALID,93,VALID,0.391797,
2011-05-03, 00:07:04,VALID,917.822,VALID,0,VALID,96.9089,VALID,0,VALID,20.4439,VALID,94,VALID,0.497656,
2011-05-03, 00:08:04,VALID,917.82,VALID,0,VALID,96.9241,VALID,0.107441,VALID,20.4228,VALID,94,VALID,0.754297,
2011-05-03, 00:09:04,VALID,917.796,VALID,0,VALID,96.9089,VALID,0,VALID,20.4244,VALID,93,VALID,0.940625,
2011-05-03, 00:10:04,VALID,917.823,VALID,0,VALID,96.9012,VALID,0,VALID,20.3448,VALID,94,VALID,1.07227,
2011-05-03, 00:11:04,VALID,917.818,VALID,0,VALID,96.9012,VALID,0,VALID,20.3058,VALID,94,VALID,0.913281,
2011-05-03, 00:12:04,VALID,917.855,VALID,0,VALID,96.9394,VALID,0,VALID,20.3058,VALID,94,VALID,0.669531,
2011-05-03, 00:13:04,VALID,917.869,VALID,0,VALID,96.9012,VALID,0.107441,VALID,20.3058,VALID,94,VALID,0.355078,
2011-05-03, 00:14:04,VALID,917.851,VALID,0,VALID,96.9165,VALID,0,VALID,20.3253,VALID,94,VALID,0,
2011-05-03, 00:15:04,VALID,917.86,VALID,0,VALID,96.9241,VALID,0,VALID,20.2863,VALID,94,VALID,0,
2011-05-03, 00:16:04,VALID,917.884,VALID,0,VALID,96.9165,VALID,0,VALID,20.2863,VALID,94,VALID,0.617578,
2011-05-03, 00:17:04,VALID,917.881,VALID,0,VALID,96.8936,VALID,0,VALID,20.2863,VALID,94,VALID,0.6625,
2011-05-03, 00:18:04,VALID,917.879,VALID,0,VALID,96.8631,VALID,0,VALID,20.2668,VALID,94,VALID,0.607422,
2011-05-03, 00:19:04,VALID,917.868,VALID,0,VALID,96.8631,VALID,0,VALID,20.2278,VALID,94,VALID,0.437891,
2011-05-03, 00:20:04,VALID,917.849,VALID,0,VALID,96.8174,VALID,0,VALID,20.2278,VALID,94,VALID,0.635547,
2011-05-03, 00:21:04,VALID,917.863,VALID,0,VALID,96.8174,VALID,0,VALID,20.2278,VALID,94,VALID,0,
2011-05-03, 00:22:04,VALID,917.831,VALID,0,VALID,96.825,VALID,0,VALID,20.2489,VALID,94,VALID,0.591016,
2011-05-03, 00:23:04,VALID,917.827,VALID,0,VALID,96.8479,VALID,0,VALID,20.2879,VALID,94,VALID,0.487109,
2011-05-03, 00:24:04,VALID,917.832,VALID,0,VALID,96.8631,VALID,0,VALID,20.3269,VALID,94,VALID,0.542969,
2011-05-03, 00:25:04,VALID,917.819,VALID,0,VALID,96.8784,VALID,0,VALID,20.3269,VALID,94,VALID,0.249219,
2011-05-03, 00:26:04,VALID,917.787,VALID,0,VALID,96.886,VALID,0,VALID,20.3464,VALID,94,VALID,0.284375,
2011-05-03, 00:27:04,VALID,917.774,VALID,0,VALID,96.886,VALID,0,VALID,20.3448,VALID,94,VALID,0.327734,
2011-05-03, 00:28:04,VALID,917.74,VALID,0,VALID,96.8784,VALID,0,VALID,20.3074,VALID,94,VALID,0.318359,
2011-05-03, 00:29:04,VALID,917.721,VALID,0,VALID,96.8707,VALID,0,VALID,20.3269,VALID,94,VALID,0.464063,
2011-05-03, 00:30:04,VALID,917.718,VALID,0,VALID,96.8403,VALID,0,VALID,20.2668,VALID,94,VALID,0.678125,
2011-05-03, 00:31:04,VALID,917.676,VALID,0,VALID,96.7335,VALID,0,VALID,20.1903,VALID,94,VALID,0.692187,
2011-05-03, 00:32:04,VALID,917.662,VALID,0,VALID,96.7793,VALID,0,VALID,20.1498,VALID,94,VALID,0.748438,
2011-05-03, 00:33:04,VALID,917.658,VALID,0,VALID,96.8555,VALID,0,VALID,20.1903,VALID,94,VALID,0.598047,
2011-05-03, 00:34:04,VALID,917.619,VALID,0,VALID,96.8631,VALID,0,VALID,20.1693,VALID,94,VALID,0.128516,
2011-05-03, 00:35:04,VALID,917.56,VALID,0,VALID,96.8784,VALID,0,VALID,20.1693,VALID,94,VALID,0,
2011-05-03, 00:36:04,VALID,917.521,VALID,0,VALID,96.8784,VALID,0,VALID,20.1693,VALID,94,VALID,0.494141,
2011-05-03, 00:37:04,VALID,917.488,VALID,0,VALID,96.9165,VALID,0,VALID,20.1693,VALID,94,VALID,0.466797,
2011-05-03, 00:38:04,VALID,917.431,VALID,0,VALID,96.9165,VALID,0,VALID,20.1888,VALID,94,VALID,0.495313,
2011-05-03, 00:39:04,VALID,917.383,VALID,0,VALID,96.9317,VALID,0,VALID,20.2083,VALID,94,VALID,0,
2011-05-03, 00:40:04,VALID,917.337,VALID,0,VALID,96.9241,VALID,0,VALID,20.2083,VALID,94,VALID,0.345703,
2011-05-03, 00:41:04,VALID,917.306,VALID,0,VALID,96.9165,VALID,0,VALID,20.1903,VALID,94,VALID,0.774219,
2011-05-03, 00:42:04,VALID,917.273,VALID,0,VALID,96.8555,VALID,0,VALID,20.1108,VALID,94,VALID,1.29492,
2011-05-03, 00:43:04,VALID,917.259,VALID,0,VALID,96.8403,VALID,0,VALID,20.1108,VALID,94,VALID,1.50625,
2011-05-03, 00:44:04,VALID,917.254,VALID,0.2,VALID,96.7869,VALID,0,VALID,20.0913,VALID,94,VALID,1.3418,
2011-05-03, 00:45:04,VALID,917.232,VALID,0,VALID,96.7869,VALID,0,VALID,20.1108,VALID,94,VALID,1.08633,
2011-05-03, 00:46:04,VALID,917.255,VALID,0,VALID,96.7869,VALID,0,VALID,20.1108,VALID,94,VALID,0.905859,
2011-05-03, 00:47:04,VALID,917.222,VALID,0,VALID,96.703,VALID,0,VALID,20.1693,VALID,94,VALID,0.675391,
2011-05-03, 00:48:04,VALID,917.205,VALID,0,VALID,96.703,VALID,0,VALID,20.1903,VALID,94,VALID,0.393359,
2011-05-03, 00:49:04,VALID,917.179,VALID,0,VALID,96.642,VALID,0,VALID,20.2098,VALID,94,VALID,0.510547,
2011-05-03, 00:50:04,VALID,917.136,VALID,0,VALID,96.6497,VALID,0,VALID,20.2083,VALID,94,VALID,0.421094,
2011-05-03, 00:51:04,VALID,917.133,VALID,0,VALID,96.642,VALID,0,VALID,20.2684,VALID,94,VALID,0.199219,
2011-05-03, 00:52:04,VALID,917.07,VALID,0,VALID,96.6725,VALID,0,VALID,20.2668,VALID,94,VALID,0.40625,
2011-05-03, 00:53:04,VALID,917.053,VALID,0,VALID,96.4438,VALID,0.107441,VALID,20.2278,VALID,94,VALID,0.340234,
2011-05-03, 00:54:04,VALID,917.045,VALID,0,VALID,96.4362,VALID,0.107441,VALID,20.1888,VALID,94,VALID,0.0269531,
2011-05-03, 00:55:04,VALID,916.997,VALID,0,VALID,96.4591,VALID,0.107441,VALID,20.1693,VALID,94,VALID,0.138281,
2011-05-03, 00:56:04,VALID,917.004,VALID,0,VALID,96.4057,VALID,0.107441,VALID,20.1288,VALID,94,VALID,0.490234,
2011-05-03, 00:57:04,VALID,916.975,VALID,0,VALID,96.4133,VALID,0.107441,VALID,20.1498,VALID,94,VALID,0.392188,
2011-05-03, 00:58:04,VALID,916.987,VALID,0,VALID,96.3905,VALID,0.107441,VALID,20.1288,VALID,94,VALID,0.0746094,
2011-05-03, 00:59:04,VALID,916.977,VALID,0,VALID,96.3905,VALID,0,VALID,20.1693,VALID,94,VALID,0,
2011-05-03, 01:00:04,VALID,916.936,VALID,0,VALID,96.3524,VALID,0.107441,VALID,20.1693,VALID,94,VALID,0.15,
2011-05-03, 01:01:04,VALID,916.885,VALID,0,VALID,96.2761,VALID,0.107441,VALID,20.1303,VALID,94,VALID,0.341016,
2011-05-03, 01:02:04,VALID,916.875,VALID,0,VALID,96.2151,VALID,0.107441,VALID,20.1108,VALID,94,VALID,0.380078,
2011-05-03, 01:03:04,VALID,916.859,VALID,0,VALID,96.1236,VALID,0.107441,VALID,20.0898,VALID,94,VALID,0.00585938,
2011-05-03, 01:04:04,VALID,916.89,VALID,0,VALID,96.0703,VALID,0.107441,VALID,20.0508,VALID,94,VALID,0,
2011-05-03, 01:05:04,VALID,916.867,VALID,0,VALID,96.0398,VALID,0.107441,VALID,20.0508,VALID,94,VALID,0.396484,
2011-05-03, 01:06:04,VALID,916.858,VALID,0,VALID,95.9559,VALID,0.107441,VALID,20.0523,VALID,94,VALID,0.300391,
2011-05-03, 01:07:04,VALID,916.87,VALID,0,VALID,95.8645,VALID,0,VALID,20.0343,VALID,94,VALID,0.323438,
2011-05-03, 01:08:04,VALID,916.867,VALID,0,VALID,95.773,VALID,0,VALID,19.9938,VALID,94,VALID,0.457812,
2011-05-03, 01:09:04,VALID,916.866,VALID,0,VALID,95.7425,VALID,0,VALID,20.0148,VALID,94,VALID,0.0484375,
2011-05-03, 01:10:04,VALID,916.861,VALID,0,VALID,95.6815,VALID,0,VALID,19.9548,VALID,94,VALID,0.000390625,
2011-05-03, 01:11:05,VALID,916.818,VALID,0,VALID,95.6586,VALID,0,VALID,19.9353,VALID,94,VALID,0.372266,
2011-05-03, 01:12:04,VALID,916.811,VALID,0,VALID,95.7196,VALID,0,VALID,19.9368,VALID,94,VALID,0,
2011-05-03, 01:13:04,VALID,916.768,VALID,0,VALID,95.7577,VALID,0,VALID,19.9368,VALID,94,VALID,0,
2011-05-03, 01:14:04,VALID,916.73,VALID,0,VALID,95.8187,VALID,0,VALID,19.9368,VALID,94,VALID,0,
2011-05-03, 01:15:04,VALID,916.708,VALID,0,VALID,95.8111,VALID,0,VALID,19.9563,VALID,94,VALID,0,
2011-05-03, 01:16:05,VALID,916.678,VALID,0,VALID,95.7425,VALID,0,VALID,19.9173,VALID,94,VALID,0,
2011-05-03, 01:17:05,VALID,916.618,VALID,0,VALID,95.773,VALID,0,VALID,19.9368,VALID,94,VALID,0.470313,
2011-05-03, 01:18:05,VALID,916.637,VALID,0,VALID,95.5519,VALID,0,VALID,19.8783,VALID,94,VALID,0.558984,
2011-05-03, 01:19:05,VALID,916.623,VALID,0,VALID,95.5671,VALID,0,VALID,19.8588,VALID,94,VALID,0.592188,
2011-05-03, 01:20:05,VALID,916.59,VALID,0,VALID,95.5671,VALID,0,VALID,19.8198,VALID,94,VALID,0.855859,
2011-05-03, 01:21:05,VALID,916.563,VALID,0,VALID,95.6815,VALID,0,VALID,19.8198,VALID,94,VALID,0.891016,
2011-05-03, 01:22:05,VALID,916.549,VALID,0,VALID,95.8416,VALID,0,VALID,19.8588,VALID,93,VALID,0.675781,
2011-05-03, 01:23:05,VALID,916.537,VALID,0,VALID,95.7272,VALID,0,VALID,19.8003,VALID,94,VALID,0.346484,
2011-05-03, 01:24:05,VALID,916.453,VALID,0,VALID,95.8111,VALID,0,VALID,19.7808,VALID,94,VALID,0,
2011-05-03, 01:25:05,VALID,916.417,VALID,0,VALID,95.8721,VALID,0,VALID,19.8003,VALID,94,VALID,0.227344,
2011-05-03, 01:26:05,VALID,916.357,VALID,0,VALID,95.9864,VALID,0,VALID,19.8603,VALID,94,VALID,0.417188,
2011-05-03, 01:27:05,VALID,916.311,VALID,0,VALID,96.0322,VALID,0,VALID,19.8588,VALID,94,VALID,0.309766,
2011-05-03, 01:28:05,VALID,916.252,VALID,0,VALID,96.0474,VALID,0,VALID,19.8993,VALID,94,VALID,0,
2011-05-03, 01:29:05,VALID,916.158,VALID,0,VALID,95.9407,VALID,0,VALID,19.8603,VALID,94,VALID,0.557031,
2011-05-03, 01:30:05,VALID,916.074,VALID,0,VALID,95.9636,VALID,0,VALID,19.8393,VALID,94,VALID,0.436719,
2011-05-03, 01:31:05,VALID,915.993,VALID,0,VALID,95.9559,VALID,0,VALID,19.8393,VALID,94,VALID,0,
2011-05-03, 01:32:05,VALID,915.936,VALID,0,VALID,96.0017,VALID,0,VALID,19.8393,VALID,94,VALID,0,
2011-05-03, 01:33:05,VALID,915.845,VALID,0,VALID,95.9941,VALID,0,VALID,19.8603,VALID,94,VALID,0,
2011-05-03, 01:34:05,VALID,915.853,VALID,0,VALID,95.9864,VALID,0,VALID,19.8198,VALID,93,VALID,0,
2011-05-03, 01:35:05,VALID,915.832,VALID,0,VALID,96.0932,VALID,0,VALID,19.8603,VALID,94,VALID,0.109375,
2011-05-03, 01:36:05,VALID,915.825,VALID,0,VALID,96.0703,VALID,0,VALID,19.8783,VALID,94,VALID,0.349609,
2011-05-03, 01:37:05,VALID,915.843,VALID,0,VALID,95.8568,VALID,0,VALID,19.8408,VALID,94,VALID,0.438672,
2011-05-03, 01:38:05,VALID,915.862,VALID,0,VALID,96.0169,VALID,0,VALID,19.8393,VALID,94,VALID,0.636328,
2011-05-03, 01:39:05,VALID,915.884,VALID,0,VALID,96.1084,VALID,0,VALID,19.8978,VALID,94,VALID,0.580859,
2011-05-03, 01:40:05,VALID,915.89,VALID,0,VALID,96.1465,VALID,0,VALID,19.8783,VALID,94,VALID,0.363281,
2011-05-03, 01:41:05,VALID,915.864,VALID,0,VALID,96.1846,VALID,0,VALID,19.8978,VALID,94,VALID,0.533984,
2011-05-03, 01:42:05,VALID,915.833,VALID,0,VALID,96.1999,VALID,0,VALID,19.8978,VALID,94,VALID,0.730469,
2011-05-03, 01:43:05,VALID,915.82,VALID,0,VALID,96.2304,VALID,0,VALID,19.8783,VALID,94,VALID,0.130469,
2011-05-03, 01:44:05,VALID,915.812,VALID,0,VALID,96.2533,VALID,0,VALID,19.8978,VALID,94,VALID,0.165625,
2011-05-03, 01:45:05,VALID,915.697,VALID,0,VALID,96.177,VALID,0,VALID,19.8798,VALID,94,VALID,0.2125,
2011-05-03, 01:46:05,VALID,915.651,VALID,0,VALID,96.2304,VALID,0,VALID,19.8588,VALID,94,VALID,0.416797,
2011-05-03, 01:47:05,VALID,915.596,VALID,0,VALID,96.2914,VALID,0,VALID,19.8588,VALID,93,VALID,0.612891,
2011-05-03, 01:48:05,VALID,915.547,VALID,0,VALID,96.2685,VALID,0,VALID,19.8198,VALID,93,VALID,0.274219,
2011-05-03, 01:49:05,VALID,915.524,VALID,0,VALID,96.3066,VALID,0,VALID,19.8003,VALID,94,VALID,0,
2011-05-03, 01:50:05,VALID,915.51,VALID,0,VALID,96.3371,VALID,0,VALID,19.8198,VALID,94,VALID,0,
2011-05-03, 01:51:05,VALID,915.519,VALID,0,VALID,96.3219,VALID,0,VALID,19.7808,VALID,94,VALID,0,
2011-05-03, 01:52:05,VALID,915.521,VALID,0,VALID,96.3219,VALID,0,VALID,19.7418,VALID,94,VALID,0,
2011-05-03, 01:53:05,VALID,915.572,VALID,0,VALID,96.3524,VALID,0,VALID,19.7418,VALID,94,VALID,0,
2011-05-03, 01:54:05,VALID,915.625,VALID,0,VALID,96.1618,VALID,0,VALID,19.6848,VALID,94,VALID,0,
2011-05-03, 01:55:05,VALID,915.663,VALID,0,VALID,95.9712,VALID,0,VALID,19.5273,VALID,94,VALID,0.542969,
2011-05-03, 01:56:05,VALID,915.703,VALID,0,VALID,96.177,VALID,0,VALID,19.5273,VALID,94,VALID,0.504297,
2011-05-03, 01:57:05,VALID,915.74,VALID,0,VALID,96.2914,VALID,0,VALID,19.5078,VALID,94,VALID,0.192969,
2011-05-03, 01:58:05,VALID,915.741,VALID,0,VALID,96.4896,VALID,0,VALID,19.5858,VALID,94,VALID,0.401953,
2011-05-03, 01:59:05,VALID,915.775,VALID,0,VALID,96.6954,VALID,0,VALID,19.7028,VALID,94,VALID,0.390625,
2011-05-03, 02:00:05,VALID,915.744,VALID,0,VALID,96.7793,VALID,0,VALID,19.7808,VALID,93,VALID,0.297266,
2011-05-03, 02:01:05,VALID,915.773,VALID,0,VALID,96.6954,VALID,0,VALID,19.8198,VALID,94,VALID,0.171484,
2011-05-03, 02:02:05,VALID,915.773,VALID,0,VALID,96.3905,VALID,0,VALID,19.6653,VALID,93,VALID,0.226563,
2011-05-03, 02:03:05,VALID,915.786,VALID,0,VALID,96.642,VALID,0,VALID,19.6848,VALID,94,VALID,0.457812,
2011-05-03, 02:04:05,VALID,915.781,VALID,0,VALID,96.5124,VALID,0,VALID,19.6263,VALID,93,VALID,0.484766,
2011-05-03, 02:05:05,VALID,915.779,VALID,0,VALID,96.6878,VALID,0,VALID,19.6458,VALID,94,VALID,0.636328,
2011-05-03, 02:06:05,VALID,915.783,VALID,0,VALID,96.5887,VALID,0,VALID,19.6053,VALID,94,VALID,0.716016,
2011-05-03, 02:07:05,VALID,915.812,VALID,0,VALID,96.6573,VALID,0,VALID,19.6053,VALID,94,VALID,0.667188,
2011-05-03, 02:08:05,VALID,915.821,VALID,0,VALID,96.6268,VALID,0,VALID,19.6053,VALID,94,VALID,0.654688,
2011-05-03, 02:09:05,VALID,915.828,VALID,0,VALID,96.5506,VALID,0,VALID,19.5273,VALID,94,VALID,0.482812,
2011-05-03, 02:10:05,VALID,915.819,VALID,0,VALID,96.6725,VALID,0,VALID,19.5273,VALID,94,VALID,0.26875,
2011-05-03, 02:11:05,VALID,915.817,VALID,0,VALID,96.7183,VALID,0,VALID,19.5663,VALID,94,VALID,0.277344,
2011-05-03, 02:12:05,VALID,915.785,VALID,0,VALID,96.7945,VALID,0,VALID,19.6263,VALID,94,VALID,0.230469,
2011-05-03, 02:13:05,VALID,915.792,VALID,0,VALID,96.8326,VALID,0,VALID,19.6638,VALID,94,VALID,0,
2011-05-03, 02:14:05,VALID,915.793,VALID,0,VALID,96.8784,VALID,0,VALID,19.7223,VALID,94,VALID,0.0234375,
2011-05-03, 02:15:05,VALID,915.755,VALID,0,VALID,96.8707,VALID,0,VALID,19.7223,VALID,94,VALID,0.00117188,
2011-05-03, 02:16:05,VALID,915.741,VALID,0,VALID,96.8174,VALID,0,VALID,19.7223,VALID,94,VALID,0.339063,
2011-05-03, 02:17:05,VALID,915.723,VALID,0,VALID,96.5734,VALID,0,VALID,19.6248,VALID,94,VALID,0.635547,
2011-05-03, 02:18:05,VALID,915.738,VALID,0,VALID,96.5811,VALID,0,VALID,19.5663,VALID,94,VALID,0.291797,
2011-05-03, 02:19:05,VALID,915.767,VALID,0,VALID,96.7335,VALID,0,VALID,19.5858,VALID,94,VALID,0.00585938,
2011-05-03, 02:20:05,VALID,915.803,VALID,0,VALID,96.8403,VALID,0,VALID,19.6248,VALID,94,VALID,0.355078,
2011-05-03, 02:21:05,VALID,915.852,VALID,0,VALID,96.8631,VALID,0,VALID,19.6833,VALID,94,VALID,0.0210938,
2011-05-03, 02:22:05,VALID,915.851,VALID,0,VALID,96.8098,VALID,0,VALID,19.7043,VALID,94,VALID,0,
2011-05-03, 02:23:05,VALID,915.859,VALID,0,VALID,96.7183,VALID,0,VALID,19.6848,VALID,94,VALID,0.725781,
2011-05-03, 02:24:05,VALID,915.867,VALID,0,VALID,96.5734,VALID,0,VALID,19.5468,VALID,94,VALID,0.510156,
2011-05-03, 02:25:05,VALID,915.895,VALID,0,VALID,96.6268,VALID,0,VALID,19.5483,VALID,94,VALID,0.619531,
2011-05-03, 02:26:05,VALID,915.891,VALID,0,VALID,96.7183,VALID,0,VALID,19.6053,VALID,94,VALID,0.674609,
2011-05-03, 02:27:05,VALID,915.943,VALID,0,VALID,96.6725,VALID,0,VALID,19.5678,VALID,94,VALID,0.644922,
2011-05-03, 02:28:05,VALID,915.932,VALID,0,VALID,96.7183,VALID,0,VALID,19.5273,VALID,94,VALID,0.139062,
2011-05-03, 02:29:05,VALID,915.908,VALID,0,VALID,96.7716,VALID,0,VALID,19.5663,VALID,94,VALID,0,
2011-05-03, 02:30:05,VALID,915.892,VALID,0,VALID,96.7564,VALID,0,VALID,19.5468,VALID,94,VALID,0,
2011-05-03, 02:31:05,VALID,915.885,VALID,0,VALID,96.7411,VALID,0,VALID,19.5678,VALID,94,VALID,0,
2011-05-03, 02:32:05,VALID,915.844,VALID,0,VALID,96.7564,VALID,0,VALID,19.5858,VALID,94,VALID,0,
2011-05-03, 02:33:05,VALID,915.849,VALID,0,VALID,96.6268,VALID,0,VALID,19.5273,VALID,93,VALID,0,
2011-05-03, 02:34:05,VALID,915.806,VALID,0,VALID,96.764,VALID,0,VALID,19.5468,VALID,94,VALID,0.533203,
2011-05-03, 02:35:05,VALID,915.771,VALID,0,VALID,96.7869,VALID,0,VALID,19.5873,VALID,94,VALID,0.425,
2011-05-03, 02:36:05,VALID,915.773,VALID,0,VALID,96.703,VALID,0,VALID,19.6068,VALID,94,VALID,0.215625,
2011-05-03, 02:37:05,VALID,915.773,VALID,0,VALID,96.5963,VALID,0,VALID,19.5453,VALID,93,VALID,0.573047,
2011-05-03, 02:38:05,VALID,915.792,VALID,0,VALID,96.7488,VALID,0,VALID,19.6038,VALID,94,VALID,0.679297,
2011-05-03, 02:39:05,VALID,915.809,VALID,0,VALID,96.5734,VALID,0,VALID,19.5843,VALID,94,VALID,0.445313,
2011-05-03, 02:40:05,VALID,915.823,VALID,0,VALID,96.5887,VALID,0,VALID,19.5843,VALID,94,VALID,0.497266,
2011-05-03, 02:41:05,VALID,915.798,VALID,0,VALID,96.6039,VALID,0,VALID,19.5843,VALID,94,VALID,0.670703,
2011-05-03, 02:42:05,VALID,915.832,VALID,0,VALID,96.6039,VALID,0,VALID,19.5843,VALID,94,VALID,0.954297,
2011-05-03, 02:43:05,VALID,915.782,VALID,0,VALID,96.5353,VALID,0,VALID,19.5663,VALID,94,VALID,1.1,
2011-05-03, 02:44:05,VALID,915.743,VALID,0,VALID,96.4515,VALID,0,VALID,19.5063,VALID,94,VALID,0.557422,
2011-05-03, 02:45:05,VALID,915.708,VALID,0,VALID,96.5124,VALID,0,VALID,19.4883,VALID,94,VALID,1.09766,
2011-05-03, 02:46:05,VALID,915.635,VALID,0,VALID,96.5734,VALID,0,VALID,19.5078,VALID,94,VALID,1.01016,
2011-05-03, 02:47:05,VALID,915.597,VALID,0,VALID,96.642,VALID,0,VALID,19.4868,VALID,94,VALID,1.41133,
2011-05-03, 02:48:05,VALID,915.568,VALID,0,VALID,96.6802,VALID,0,VALID,19.4673,VALID,94,VALID,1.20742,
2011-05-03, 02:49:05,VALID,915.573,VALID,0,VALID,96.6725,VALID,0,VALID,19.4688,VALID,94,VALID,1.01094,
2011-05-03, 02:50:05,VALID,915.555,VALID,0,VALID,96.7259,VALID,0,VALID,19.4478,VALID,93,VALID,0.846875,
2011-05-03, 02:51:05,VALID,915.505,VALID,0,VALID,96.7488,VALID,0,VALID,19.4673,VALID,94,VALID,0.66875,
2011-05-03, 02:52:05,VALID,915.448,VALID,0,VALID,96.8326,VALID,0,VALID,19.5093,VALID,94,VALID,0.889063,
2011-05-03, 02:53:05,VALID,915.454,VALID,0,VALID,96.8936,VALID,0,VALID,19.5483,VALID,94,VALID,0.498437,
2011-05-03, 02:54:05,VALID,915.455,VALID,0,VALID,96.9165,VALID,0,VALID,19.5273,VALID,94,VALID,0,
2011-05-03, 02:55:05,VALID,915.455,VALID,0,VALID,96.8784,VALID,0,VALID,19.5273,VALID,94,VALID,0.0527344,
2011-05-03, 02:56:05,VALID,915.47,VALID,0,VALID,96.9012,VALID,0,VALID,19.5273,VALID,93,VALID,0.122656,
2011-05-03, 02:57:05,VALID,915.513,VALID,0,VALID,96.7793,VALID,0,VALID,19.4898,VALID,94,VALID,0.0734375,
2011-05-03, 02:58:05,VALID,915.518,VALID,0,VALID,96.8403,VALID,0,VALID,19.4298,VALID,94,VALID,0.169141,
2011-05-03, 02:59:05,VALID,915.557,VALID,0,VALID,96.8784,VALID,0,VALID,19.4313,VALID,94,VALID,0.137109,
2011-05-03, 03:00:05,VALID,915.572,VALID,0,VALID,96.886,VALID,0,VALID,19.4118,VALID,94,VALID,0.575,
2011-05-03, 03:01:05,VALID,915.599,VALID,0,VALID,96.9317,VALID,0,VALID,19.3923,VALID,94,VALID,0.213281,
2011-05-03, 03:02:05,VALID,915.665,VALID,0,VALID,96.9089,VALID,0,VALID,19.3923,VALID,94,VALID,0.000390625,
2011-05-03, 03:03:05,VALID,915.705,VALID,0,VALID,96.825,VALID,0,VALID,19.2933,VALID,94,VALID,0.474219,
2011-05-03, 03:04:05,VALID,915.726,VALID,0,VALID,96.9851,VALID,0,VALID,19.2738,VALID,94,VALID,0.928516,
2011-05-03, 03:05:05,VALID,915.753,VALID,0,VALID,97.0461,VALID,0,VALID,19.4103,VALID,94,VALID,0.739453,
2011-05-03, 03:06:05,VALID,915.732,VALID,0,VALID,97.0537,VALID,0,VALID,19.4493,VALID,94,VALID,0.867969,
2011-05-03, 03:07:05,VALID,915.722,VALID,0,VALID,97.0842,VALID,0,VALID,19.5078,VALID,94,VALID,0.898828,
2011-05-03, 03:08:05,VALID,915.73,VALID,0,VALID,97.0613,VALID,0,VALID,19.5078,VALID,94,VALID,0.617578,
2011-05-03, 03:09:05,VALID,915.747,VALID,0,VALID,97.0613,VALID,0,VALID,19.4883,VALID,93,VALID,0.897656,
2011-05-03, 03:10:05,VALID,915.76,VALID,0,VALID,97.0232,VALID,0,VALID,19.4493,VALID,94,VALID,1.03242,
2011-05-03, 03:11:05,VALID,915.763,VALID,0,VALID,97.0156,VALID,0,VALID,19.4298,VALID,94,VALID,1.19102,
2011-05-03, 03:12:05,VALID,915.752,VALID,0,VALID,97.0156,VALID,0,VALID,19.4298,VALID,94,VALID,0.886328,
2011-05-03, 03:13:05,VALID,915.759,VALID,0,VALID,97.0537,VALID,0,VALID,19.4493,VALID,94,VALID,0.788672,
2011-05-03, 03:14:05,VALID,915.706,VALID,0,VALID,97.0461,VALID,0,VALID,19.4493,VALID,94,VALID,0.924219,
2011-05-03, 03:15:05,VALID,915.714,VALID,0,VALID,97.0308,VALID,0,VALID,19.4103,VALID,94,VALID,0.889063,
2011-05-03, 03:16:05,VALID,915.708,VALID,0,VALID,97.0385,VALID,0,VALID,19.4298,VALID,94,VALID,1.33125,
2011-05-03, 03:17:05,VALID,915.684,VALID,0,VALID,97.0461,VALID,0,VALID,19.4298,VALID,94,VALID,1.01914,
2011-05-03, 03:18:05,VALID,915.654,VALID,0,VALID,97.069,VALID,0,VALID,19.4298,VALID,94,VALID,0.639063,
2011-05-03, 03:19:05,VALID,915.623,VALID,0,VALID,97.0842,VALID,0,VALID,19.4103,VALID,94,VALID,1.12148,
2011-05-03, 03:20:05,VALID,915.583,VALID,0,VALID,97.0766,VALID,0,VALID,19.4103,VALID,94,VALID,0.944922,
2011-05-03, 03:21:05,VALID,915.554,VALID,0,VALID,97.1223,VALID,0,VALID,19.4298,VALID,94,VALID,1.02148,
2011-05-03, 03:22:05,VALID,915.532,VALID,0,VALID,97.1147,VALID,0.107441,VALID,19.4493,VALID,94,VALID,0.971484,
2011-05-03, 03:23:05,VALID,915.519,VALID,0,VALID,97.1376,VALID,0,VALID,19.4088,VALID,94,VALID,1.04883,
2011-05-03, 03:24:05,VALID,915.508,VALID,0,VALID,97.1223,VALID,0.107441,VALID,19.4088,VALID,94,VALID,1.01406,
2011-05-03, 03:25:05,VALID,915.513,VALID,0,VALID,97.1452,VALID,0.107441,VALID,19.3893,VALID,94,VALID,0.842578,
2011-05-03, 03:26:05,VALID,915.513,VALID,0,VALID,97.1299,VALID,0.107441,VALID,19.3893,VALID,94,VALID,0.528516,
2011-05-03, 03:27:05,VALID,915.514,VALID,0,VALID,97.1452,VALID,0.107441,VALID,19.4088,VALID,94,VALID,0.591797,
2011-05-03, 03:28:05,VALID,915.515,VALID,0,VALID,97.1681,VALID,0.107441,VALID,19.4478,VALID,93,VALID,0.733203,
2011-05-03, 03:29:05,VALID,915.494,VALID,0,VALID,97.1833,VALID,0.107441,VALID,19.4673,VALID,94,VALID,0.796875,
2011-05-03, 03:30:05,VALID,915.464,VALID,0,VALID,97.1833,VALID,0.107441,VALID,19.4283,VALID,94,VALID,0.450781,
2011-05-03, 03:31:05,VALID,915.427,VALID,0,VALID,97.1986,VALID,0.107441,VALID,19.4478,VALID,94,VALID,0.484375,
2011-05-03, 03:32:05,VALID,915.384,VALID,0,VALID,97.1909,VALID,0.107441,VALID,19.4673,VALID,94,VALID,0.548828,
2011-05-03, 03:33:05,VALID,915.398,VALID,0,VALID,97.2062,VALID,0.107441,VALID,19.4673,VALID,93,VALID,0.704297,
2011-05-03, 03:34:05,VALID,915.434,VALID,0,VALID,97.1986,VALID,0.107441,VALID,19.4868,VALID,93,VALID,0.649219,
2011-05-03, 03:35:05,VALID,915.471,VALID,0,VALID,97.2214,VALID,0.107441,VALID,19.4868,VALID,93,VALID,0.573828,
2011-05-03, 03:36:05,VALID,915.475,VALID,0,VALID,97.2367,VALID,0.107441,VALID,19.5063,VALID,94,VALID,0.553516,
2011-05-03, 03:37:05,VALID,915.467,VALID,0,VALID,97.2443,VALID,0,VALID,19.5468,VALID,94,VALID,0.781641,
2011-05-03, 03:38:05,VALID,915.494,VALID,0,VALID,97.2367,VALID,0,VALID,19.5078,VALID,94,VALID,0.871875,
2011-05-03, 03:39:05,VALID,915.526,VALID,0,VALID,97.2519,VALID,0,VALID,19.5273,VALID,94,VALID,1.05117,
2011-05-03, 03:40:05,VALID,915.529,VALID,0,VALID,97.2367,VALID,0,VALID,19.5273,VALID,94,VALID,1.0418,
2011-05-03, 03:41:05,VALID,915.535,VALID,0,VALID,97.229,VALID,0,VALID,19.5078,VALID,94,VALID,0.939453,
2011-05-03, 03:42:05,VALID,915.552,VALID,0,VALID,97.229,VALID,0,VALID,19.5273,VALID,94,VALID,0.895312,
2011-05-03, 03:43:05,VALID,915.521,VALID,0,VALID,97.229,VALID,0,VALID,19.4868,VALID,94,VALID,1.01641,
2011-05-03, 03:44:05,VALID,915.519,VALID,0,VALID,97.2367,VALID,0,VALID,19.5273,VALID,93,VALID,0.924609,
2011-05-03, 03:45:05,VALID,915.518,VALID,0,VALID,97.229,VALID,0,VALID,19.5468,VALID,94,VALID,0.860156,
2011-05-03, 03:46:05,VALID,915.521,VALID,0,VALID,97.2214,VALID,0,VALID,19.5273,VALID,94,VALID,1.05547,